Time,TemperatureF,DewpointF,PressureIn,WindDirection,WindDirectionDegrees,WindSpeedMPH,WindSpeedGustMPH,Humidity,HourlyPrecipIn,Conditions,Clouds,dailyrainin,SolarRadiationWatts/m^2,SoftwareType,DateUTC
2013-07-01 05:53:00,59.0,59.0,-100.00,NNE,31,2.0,5.0,99,-99.99,,,0.00,0.120000,,2013-07-01 12:53:00,
2013-07-01 06:01:00,59.0,59.0,-100.00,NNE,31,2.0,5.0,99,-99.99,,,0.00,0.120000,,2013-07-01 13:01:00,
2013-07-01 06:12:00,59.0,59.0,-100.00,NNE,31,2.0,5.0,99,-99.99,,,0.00,0.120000,,2013-07-01 13:12:00,
2013-07-01 06:43:00,59.0,59.0,-100.00,NE,45,4.0,7.0,99,-99.99,,,0.00,12.900000,,2013-07-01 13:43:00,
2013-07-01 06:53:00,59.0,59.0,-100.00,NE,45,4.0,7.0,99,-99.99,,,0.00,12.900000,,2013-07-01 13:53:00,
2013-07-01 07:01:00,59.0,59.0,-100.00,NE,45,4.0,7.0,99,-99.99,,,0.00,12.900000,,2013-07-01 14:01:00,
2013-07-01 07:11:00,59.0,59.0,-100.00,NE,45,4.0,7.0,99,-99.99,,,0.00,12.900000,,2013-07-01 14:11:00,
2013-07-01 07:43:00,60.0,59.0,-100.00,NE,43,3.0,8.0,98,-99.99,,,0.00,63.919998,,2013-07-01 14:43:00,
2013-07-01 07:53:00,60.0,59.0,-100.00,NE,43,3.0,8.0,98,-99.99,,,0.00,63.919998,,2013-07-01 14:53:00,
2013-07-01 08:01:00,60.0,59.0,-100.00,NE,43,3.0,8.0,98,-99.99,,,0.00,63.919998,,2013-07-01 15:01:00,
2013-07-01 08:11:00,60.0,59.0,-100.00,NE,43,3.0,8.0,98,-99.99,,,0.00,63.919998,,2013-07-01 15:11:00,
2013-07-01 08:43:00,62.0,60.0,-100.00,NNE,31,4.0,11.0,94,-99.99,,,0.00,200.250000,,2013-07-01 15:43:00,
2013-07-01 08:53:00,62.0,60.0,-100.00,NNE,31,4.0,11.0,94,-99.99,,,0.00,200.250000,,2013-07-01 15:53:00,
2013-07-01 09:01:00,62.0,60.0,-100.00,NNE,31,4.0,11.0,94,-99.99,,,0.00,200.250000,,2013-07-01 16:01:00,
2013-07-01 09:11:00,62.0,60.0,-100.00,NNE,31,4.0,11.0,94,-99.99,,,0.00,200.250000,,2013-07-01 16:11:00,
2013-07-01 09:44:00,66.0,60.0,-100.00,NE,50,4.0,10.0,81,-99.99,,,0.00,525.780029,,2013-07-01 16:44:00,
2013-07-01 09:53:00,66.0,60.0,-100.00,NE,50,4.0,10.0,81,-99.99,,,0.00,525.780029,,2013-07-01 16:53:00,
2013-07-01 10:02:00,66.0,60.0,-100.00,NE,50,4.0,10.0,81,-99.99,,,0.00,525.780029,,2013-07-01 17:02:00,
2013-07-01 10:12:00,66.0,60.0,-100.00,NE,50,4.0,10.0,81,-99.99,,,0.00,525.780029,,2013-07-01 17:12:00,
2013-07-01 10:43:00,64.0,60.0,-100.00,NNW,348,8.0,17.0,88,-99.99,,,0.00,685.469971,,2013-07-01 17:43:00,
2013-07-01 10:53:00,64.0,60.0,-100.00,NNW,348,8.0,17.0,88,-99.99,,,0.00,685.469971,,2013-07-01 17:53:00,
2013-07-01 11:02:00,64.0,60.0,-100.00,NNW,348,8.0,17.0,88,-99.99,,,0.00,685.469971,,2013-07-01 18:02:00,
2013-07-01 11:11:00,64.0,60.0,-100.00,NNW,348,8.0,17.0,88,-99.99,,,0.00,685.469971,,2013-07-01 18:11:00,
2013-07-01 11:43:00,63.0,61.0,-100.00,NNW,348,9.0,18.0,90,-99.99,,,0.00,802.729980,,2013-07-01 18:43:00,
2013-07-01 11:53:00,63.0,61.0,-100.00,NNW,348,9.0,18.0,90,-99.99,,,0.00,802.729980,,2013-07-01 18:53:00,
2013-07-01 12:01:00,63.0,61.0,-100.00,NNW,348,9.0,18.0,90,-99.99,,,0.00,802.729980,,2013-07-01 19:01:00,
2013-07-01 12:11:00,63.0,61.0,-100.00,NNW,348,9.0,18.0,90,-99.99,,,0.00,802.729980,,2013-07-01 19:11:00,
2013-07-01 12:53:00,65.0,61.0,-100.00,NNW,339,10.0,17.0,87,-99.99,,,0.00,896.059998,,2013-07-01 19:53:00,
2013-07-01 13:01:00,65.0,61.0,-100.00,NNW,339,10.0,17.0,87,-99.99,,,0.00,896.059998,,2013-07-01 20:01:00,
2013-07-01 13:11:00,65.0,61.0,-100.00,NNW,339,10.0,17.0,87,-99.99,,,0.00,896.059998,,2013-07-01 20:11:00,
2013-07-01 13:43:00,66.0,62.0,-100.00,North,349,9.0,18.0,85,-99.99,,,0.00,932.080017,,2013-07-01 20:43:00,
2013-07-01 13:52:00,66.0,62.0,-100.00,North,349,9.0,18.0,85,-99.99,,,0.00,932.080017,,2013-07-01 20:52:00,
2013-07-01 14:01:00,66.0,62.0,-100.00,North,349,9.0,18.0,85,-99.99,,,0.00,932.080017,,2013-07-01 21:01:00,
2013-07-01 14:11:00,66.0,62.0,-100.00,North,349,9.0,18.0,85,-99.99,,,0.00,932.080017,,2013-07-01 21:11:00,
2013-07-01 14:43:00,65.0,61.0,-100.00,NNW,347,10.0,20.0,86,-99.99,,,0.00,920.460022,,2013-07-01 21:43:00,
2013-07-01 14:53:00,65.0,61.0,-100.00,NNW,347,10.0,20.0,86,-99.99,,,0.00,920.460022,,2013-07-01 21:53:00,
2013-07-01 15:01:00,65.0,61.0,-100.00,NNW,347,10.0,20.0,86,-99.99,,,0.00,920.460022,,2013-07-01 22:01:00,
2013-07-01 15:11:00,65.0,61.0,-100.00,NNW,347,10.0,20.0,86,-99.99,,,0.00,920.460022,,2013-07-01 22:11:00,
2013-07-01 15:53:00,65.0,61.0,-100.00,NNW,338,11.0,22.0,88,-99.99,,,0.00,857.700012,,2013-07-01 22:53:00,
2013-07-01 16:01:00,65.0,61.0,-100.00,NNW,338,11.0,22.0,88,-99.99,,,0.00,857.700012,,2013-07-01 23:01:00,
2013-07-01 16:11:00,65.0,61.0,-100.00,NNW,338,11.0,22.0,88,-99.99,,,0.00,857.700012,,2013-07-01 23:11:00,
2013-07-01 16:44:00,65.0,62.0,-100.00,NNW,345,10.0,22.0,88,-99.99,,,-99.99,678.960022,,2013-07-01 23:44:00,
2013-07-01 16:53:00,65.0,62.0,-100.00,NNW,345,10.0,22.0,88,-99.99,,,-99.99,678.960022,,2013-07-01 23:53:00,
2013-07-01 17:01:00,65.0,62.0,-100.00,NNW,345,10.0,22.0,88,-99.99,,,-99.99,678.960022,,2013-07-02 00:01:00,
2013-07-01 17:11:00,65.0,62.0,-100.00,NNW,345,10.0,22.0,88,-99.99,,,-99.99,678.960022,,2013-07-02 00:11:00,
2013-07-01 17:43:00,64.0,61.0,-100.00,North,353,8.0,17.0,91,-99.99,,,-99.99,298.220001,,2013-07-02 00:43:00,
2013-07-01 17:53:00,64.0,61.0,-100.00,North,353,8.0,17.0,91,-99.99,,,-99.99,298.220001,,2013-07-02 00:53:00,
2013-07-01 18:01:00,64.0,61.0,-100.00,North,353,8.0,17.0,91,-99.99,,,-99.99,298.220001,,2013-07-02 01:01:00,
2013-07-01 18:11:00,64.0,61.0,-100.00,North,353,8.0,17.0,91,-99.99,,,-99.99,298.220001,,2013-07-02 01:11:00,
2013-07-01 18:43:00,64.0,61.0,-100.00,North,350,6.0,12.0,89,-99.99,,,-99.99,225.929993,,2013-07-02 01:43:00,
2013-07-01 18:53:00,64.0,61.0,-100.00,North,350,6.0,12.0,89,-99.99,,,-99.99,225.929993,,2013-07-02 01:53:00,
2013-07-01 19:01:00,64.0,61.0,-100.00,North,350,6.0,12.0,89,-99.99,,,-99.99,225.929993,,2013-07-02 02:01:00,
2013-07-01 19:11:00,64.0,61.0,-100.00,North,350,6.0,12.0,89,-99.99,,,-99.99,225.929993,,2013-07-02 02:11:00,
2013-07-01 19:43:00,63.0,60.0,-100.00,NNW,343,7.0,16.0,90,-99.99,,,-99.99,214.539993,,2013-07-02 02:43:00,
2013-07-01 19:53:00,63.0,60.0,-100.00,NNW,343,7.0,16.0,90,-99.99,,,-99.99,214.539993,,2013-07-02 02:53:00,
2013-07-01 20:01:00,63.0,60.0,-100.00,NNW,343,7.0,16.0,90,-99.99,,,-99.99,214.539993,,2013-07-02 03:01:00,
2013-07-01 20:11:00,63.0,60.0,-100.00,NNW,343,7.0,16.0,90,-99.99,,,-99.99,214.539993,,2013-07-02 03:11:00,
2013-07-01 20:43:00,61.0,60.0,-100.00,North,356,7.0,13.0,95,-99.99,,,-99.99,40.680000,,2013-07-02 03:43:00,
2013-07-01 20:53:00,61.0,60.0,-100.00,North,356,7.0,13.0,95,-99.99,,,-99.99,40.680000,,2013-07-02 03:53:00,
2013-07-01 21:02:00,61.0,60.0,-100.00,North,356,7.0,13.0,95,-99.99,,,-99.99,40.680000,,2013-07-02 04:02:00,
2013-07-01 21:11:00,61.0,60.0,-100.00,North,356,7.0,13.0,95,-99.99,,,-99.99,40.680000,,2013-07-02 04:11:00,
2013-07-01 21:42:00,60.0,60.0,-100.00,North,353,7.0,17.0,97,-99.99,,,-99.99,2.090000,,2013-07-02 04:42:00,
2013-07-01 21:53:00,60.0,60.0,-100.00,North,353,7.0,17.0,97,-99.99,,,-99.99,2.090000,,2013-07-02 04:53:00,
2013-07-01 22:01:00,60.0,60.0,-100.00,North,353,7.0,17.0,97,-99.99,,,-99.99,2.090000,,2013-07-02 05:01:00,
2013-07-01 22:11:00,60.0,60.0,-100.00,North,353,7.0,17.0,97,-99.99,,,-99.99,2.090000,,2013-07-02 05:11:00,
2013-07-01 22:43:00,60.0,60.0,-100.00,North,358,4.0,8.0,98,-99.99,,,-99.99,0.230000,,2013-07-02 05:43:00,
2013-07-01 22:53:00,60.0,60.0,-100.00,North,358,4.0,8.0,98,-99.99,,,-99.99,0.230000,,2013-07-02 05:53:00,
2013-07-01 23:01:00,60.0,60.0,-100.00,North,358,4.0,8.0,98,-99.99,,,-99.99,0.230000,,2013-07-02 06:01:00,
2013-07-01 23:11:00,60.0,60.0,-100.00,North,358,4.0,8.0,98,-99.99,,,-99.99,0.230000,,2013-07-02 06:11:00,
2013-07-01 23:43:00,60.0,60.0,-100.00,North,3,5.0,10.0,98,-99.99,,,-99.99,0.230000,,2013-07-02 06:43:00,
2013-07-01 23:53:00,60.0,60.0,-100.00,North,3,5.0,10.0,98,-99.99,,,-99.99,0.230000,,2013-07-02 06:53:00,